owner,sensor,date,latitude,longitude,vertical_datum,sea_water_temperature,qcFlag 
COMPS,ioos:station:USF.COMPS:FHP:1,2013-12-03T16:00:00Z,28.1530,-82.8010,-1.0,17.43,2 
COMPS,ioos:station:USF.COMPS:FHP:1,2013-12-03T16:06:00Z,28.1530,-82.8010,-1.0,17.4,2 
COMPS,ioos:station:USF.COMPS:FHP:1,2013-12-03T16:12:00Z,28.1530,-82.8010,-1.0,17.44,2 
COMPS,ioos:station:USF.COMPS:FHP:1,2013-12-03T16:18:00Z,28.1530,-82.8010,-1.0,17.48,2 
COMPS,ioos:station:USF.COMPS:FHP:1,2013-12-03T16:24:00Z,28.1530,-82.8010,-1.0,17.47,2 
COMPS,ioos:station:USF.COMPS:FHP:1,2013-12-03T16:30:00Z,28.1530,-82.8010,-1.0,17.49,2 
COMPS,ioos:station:USF.COMPS:FHP:1,2013-12-03T16:36:00Z,28.1530,-82.8010,-1.0,17.47,2 
COMPS,ioos:station:USF.COMPS:FHP:1,2013-12-03T16:42:00Z,28.1530,-82.8010,-1.0,17.51,2 
COMPS,ioos:station:USF.COMPS:FHP:1,2013-12-03T16:48:00Z,28.1530,-82.8010,-1.0,17.59,2 
COMPS,ioos:station:USF.COMPS:FHP:1,2013-12-03T16:54:00Z,28.1530,-82.8010,-1.0,17.56,2 
COMPS,ioos:station:USF.COMPS:FHP:1,2013-12-03T17:00:00Z,28.1530,-82.8010,-1.0,17.61,2 
COMPS,ioos:station:USF.COMPS:FHP:1,2013-12-03T17:06:00Z,28.1530,-82.8010,-1.0,17.63,2 
COMPS,ioos:station:USF.COMPS:FHP:1,2013-12-03T17:12:00Z,28.1530,-82.8010,-1.0,17.76,2 
COMPS,ioos:station:USF.COMPS:FHP:1,2013-12-03T17:18:00Z,28.1530,-82.8010,-1.0,17.68,2 
COMPS,ioos:station:USF.COMPS:FHP:1,2013-12-03T17:24:00Z,28.1530,-82.8010,-1.0,17.65,2 
COMPS,ioos:station:USF.COMPS:FHP:1,2013-12-03T17:30:00Z,28.1530,-82.8010,-1.0,17.67,2 
COMPS,ioos:station:USF.COMPS:FHP:1,2013-12-03T17:36:00Z,28.1530,-82.8010,-1.0,17.67,2 
COMPS,ioos:station:USF.COMPS:FHP:1,2013-12-03T17:42:00Z,28.1530,-82.8010,-1.0,17.77,2 
COMPS,ioos:station:USF.COMPS:FHP:1,2013-12-03T17:48:00Z,28.1530,-82.8010,-1.0,17.8,2 
COMPS,ioos:station:USF.COMPS:FHP:1,2013-12-03T17:54:00Z,28.1530,-82.8010,-1.0,17.87,2 
COMPS,ioos:station:USF.COMPS:FHP:1,2013-12-03T18:00:00Z,28.1530,-82.8010,-1.0,17.9,2 
COMPS,ioos:station:USF.COMPS:FHP:1,2013-12-03T18:06:00Z,28.1530,-82.8010,-1.0,17.91,2 
COMPS,ioos:station:USF.COMPS:FHP:1,2013-12-03T18:12:00Z,28.1530,-82.8010,-1.0,17.94,2 
COMPS,ioos:station:USF.COMPS:FHP:1,2013-12-03T18:18:00Z,28.1530,-82.8010,-1.0,17.97,2 
COMPS,ioos:station:USF.COMPS:FHP:1,2013-12-03T18:24:00Z,28.1530,-82.8010,-1.0,18.0,2 
COMPS,ioos:station:USF.COMPS:FHP:1,2013-12-03T18:30:00Z,28.1530,-82.8010,-1.0,18.04,2 
COMPS,ioos:station:USF.COMPS:FHP:1,2013-12-03T18:36:00Z,28.1530,-82.8010,-1.0,18.06,2 
COMPS,ioos:station:USF.COMPS:FHP:1,2013-12-03T18:42:00Z,28.1530,-82.8010,-1.0,18.08,2 
COMPS,ioos:station:USF.COMPS:FHP:1,2013-12-03T18:48:00Z,28.1530,-82.8010,-1.0,18.13,2 
COMPS,ioos:station:USF.COMPS:FHP:1,2013-12-03T18:54:00Z,28.1530,-82.8010,-1.0,18.16,2 
COMPS,ioos:station:USF.COMPS:FHP:1,2013-12-03T19:00:00Z,28.1530,-82.8010,-1.0,18.18,2 
COMPS,ioos:station:USF.COMPS:FHP:1,2013-12-03T19:06:00Z,28.1530,-82.8010,-1.0,18.2,2 
COMPS,ioos:station:USF.COMPS:FHP:1,2013-12-03T19:12:00Z,28.1530,-82.8010,-1.0,18.21,2 
COMPS,ioos:station:USF.COMPS:FHP:1,2013-12-03T19:18:00Z,28.1530,-82.8010,-1.0,18.23,2 
COMPS,ioos:station:USF.COMPS:FHP:1,2013-12-03T19:24:00Z,28.1530,-82.8010,-1.0,18.24,2 
COMPS,ioos:station:USF.COMPS:FHP:1,2013-12-03T19:30:00Z,28.1530,-82.8010,-1.0,18.27,2 
COMPS,ioos:station:USF.COMPS:FHP:1,2013-12-03T19:36:00Z,28.1530,-82.8010,-1.0,18.3,2 
COMPS,ioos:station:USF.COMPS:FHP:1,2013-12-03T19:42:00Z,28.1530,-82.8010,-1.0,18.31,2 
COMPS,ioos:station:USF.COMPS:FHP:1,2013-12-03T19:48:00Z,28.1530,-82.8010,-1.0,18.34,2 
COMPS,ioos:station:USF.COMPS:FHP:1,2013-12-03T19:54:00Z,28.1530,-82.8010,-1.0,18.36,2 
COMPS,ioos:station:USF.COMPS:FHP:1,2013-12-03T20:00:00Z,28.1530,-82.8010,-1.0,18.38,2 
COMPS,ioos:station:USF.COMPS:FHP:1,2013-12-03T20:06:00Z,28.1530,-82.8010,-1.0,18.42,2 
COMPS,ioos:station:USF.COMPS:FHP:1,2013-12-03T20:12:00Z,28.1530,-82.8010,-1.0,18.52,2 
COMPS,ioos:station:USF.COMPS:FHP:1,2013-12-03T20:18:00Z,28.1530,-82.8010,-1.0,18.57,2 
COMPS,ioos:station:USF.COMPS:FHP:1,2013-12-03T20:24:00Z,28.1530,-82.8010,-1.0,18.64,2 
COMPS,ioos:station:USF.COMPS:FHP:1,2013-12-03T20:30:00Z,28.1530,-82.8010,-1.0,18.68,2 
COMPS,ioos:station:USF.COMPS:FHP:1,2013-12-03T20:36:00Z,28.1530,-82.8010,-1.0,18.71,2 
COMPS,ioos:station:USF.COMPS:FHP:1,2013-12-03T20:42:00Z,28.1530,-82.8010,-1.0,18.73,2 
COMPS,ioos:station:USF.COMPS:FHP:1,2013-12-03T20:48:00Z,28.1530,-82.8010,-1.0,18.85,2 
COMPS,ioos:station:USF.COMPS:FHP:1,2013-12-03T20:54:00Z,28.1530,-82.8010,-1.0,18.93,2 
COMPS,ioos:station:USF.COMPS:FHP:1,2013-12-03T21:00:00Z,28.1530,-82.8010,-1.0,19.02,2 
COMPS,ioos:station:USF.COMPS:FHP:1,2013-12-03T21:06:00Z,28.1530,-82.8010,-1.0,19.01,2 
COMPS,ioos:station:USF.COMPS:FHP:1,2013-12-03T21:12:00Z,28.1530,-82.8010,-1.0,18.91,2 
COMPS,ioos:station:USF.COMPS:FHP:1,2013-12-03T21:18:00Z,28.1530,-82.8010,-1.0,18.93,2 
COMPS,ioos:station:USF.COMPS:FHP:1,2013-12-03T21:24:00Z,28.1530,-82.8010,-1.0,19.14,2 
COMPS,ioos:station:USF.COMPS:FHP:1,2013-12-03T21:30:00Z,28.1530,-82.8010,-1.0,19.18,2 
COMPS,ioos:station:USF.COMPS:FHP:1,2013-12-03T21:36:00Z,28.1530,-82.8010,-1.0,19.26,2 
COMPS,ioos:station:USF.COMPS:FHP:1,2013-12-03T21:42:00Z,28.1530,-82.8010,-1.0,19.24,2 
COMPS,ioos:station:USF.COMPS:FHP:1,2013-12-03T21:48:00Z,28.1530,-82.8010,-1.0,19.17,2 
COMPS,ioos:station:USF.COMPS:FHP:1,2013-12-03T21:54:00Z,28.1530,-82.8010,-1.0,19.19,2 
COMPS,ioos:station:USF.COMPS:FHP:1,2013-12-03T22:00:00Z,28.1530,-82.8010,-1.0,19.15,2 
COMPS,ioos:station:USF.COMPS:FHP:1,2013-12-03T22:06:00Z,28.1530,-82.8010,-1.0,19.12,2 
COMPS,ioos:station:USF.COMPS:FHP:1,2013-12-03T22:12:00Z,28.1530,-82.8010,-1.0,19.13,2 
COMPS,ioos:station:USF.COMPS:FHP:1,2013-12-03T22:18:00Z,28.1530,-82.8010,-1.0,19.09,2 
COMPS,ioos:station:USF.COMPS:FHP:1,2013-12-03T22:24:00Z,28.1530,-82.8010,-1.0,19.02,2 
COMPS,ioos:station:USF.COMPS:FHP:1,2013-12-03T22:30:00Z,28.1530,-82.8010,-1.0,19.0,2 
COMPS,ioos:station:USF.COMPS:FHP:1,2013-12-03T22:36:00Z,28.1530,-82.8010,-1.0,18.97,2 
COMPS,ioos:station:USF.COMPS:FHP:1,2013-12-03T22:42:00Z,28.1530,-82.8010,-1.0,18.92,2 
COMPS,ioos:station:USF.COMPS:FHP:1,2013-12-03T22:48:00Z,28.1530,-82.8010,-1.0,18.88,2 
COMPS,ioos:station:USF.COMPS:FHP:1,2013-12-03T22:54:00Z,28.1530,-82.8010,-1.0,18.91,2 
COMPS,ioos:station:USF.COMPS:FHP:1,2013-12-03T23:00:00Z,28.1530,-82.8010,-1.0,18.97,2 
COMPS,ioos:station:USF.COMPS:FHP:1,2013-12-03T23:06:00Z,28.1530,-82.8010,-1.0,18.98,2 
COMPS,ioos:station:USF.COMPS:FHP:1,2013-12-03T23:12:00Z,28.1530,-82.8010,-1.0,19.02,2 
COMPS,ioos:station:USF.COMPS:FHP:1,2013-12-03T23:18:00Z,28.1530,-82.8010,-1.0,19.08,2 
COMPS,ioos:station:USF.COMPS:FHP:1,2013-12-03T23:24:00Z,28.1530,-82.8010,-1.0,18.99,2 
COMPS,ioos:station:USF.COMPS:FHP:1,2013-12-03T23:30:00Z,28.1530,-82.8010,-1.0,18.93,2 
COMPS,ioos:station:USF.COMPS:FHP:1,2013-12-03T23:36:00Z,28.1530,-82.8010,-1.0,19.0,2 
COMPS,ioos:station:USF.COMPS:FHP:1,2013-12-03T23:42:00Z,28.1530,-82.8010,-1.0,18.95,2 
COMPS,ioos:station:USF.COMPS:FHP:1,2013-12-03T23:48:00Z,28.1530,-82.8010,-1.0,18.95,2 
COMPS,ioos:station:USF.COMPS:FHP:1,2013-12-03T23:54:00Z,28.1530,-82.8010,-1.0,19.04,2 
COMPS,ioos:station:USF.COMPS:FHP:1,2013-12-04T00:00:00Z,28.1530,-82.8010,-1.0,18.99,2 
COMPS,ioos:station:USF.COMPS:FHP:1,2013-12-04T00:06:00Z,28.1530,-82.8010,-1.0,18.95,2 
COMPS,ioos:station:USF.COMPS:FHP:1,2013-12-04T00:12:00Z,28.1530,-82.8010,-1.0,18.89,2 
COMPS,ioos:station:USF.COMPS:FHP:1,2013-12-04T00:18:00Z,28.1530,-82.8010,-1.0,18.86,2 
COMPS,ioos:station:USF.COMPS:FHP:1,2013-12-04T00:24:00Z,28.1530,-82.8010,-1.0,18.93,2 
COMPS,ioos:station:USF.COMPS:FHP:1,2013-12-04T00:30:00Z,28.1530,-82.8010,-1.0,18.84,2 
COMPS,ioos:station:USF.COMPS:FHP:1,2013-12-04T00:36:00Z,28.1530,-82.8010,-1.0,18.73,2 
COMPS,ioos:station:USF.COMPS:FHP:1,2013-12-04T00:42:00Z,28.1530,-82.8010,-1.0,18.69,2 
COMPS,ioos:station:USF.COMPS:FHP:1,2013-12-04T00:48:00Z,28.1530,-82.8010,-1.0,18.68,2 
COMPS,ioos:station:USF.COMPS:FHP:1,2013-12-04T00:54:00Z,28.1530,-82.8010,-1.0,18.67,2 
COMPS,ioos:station:USF.COMPS:FHP:1,2013-12-04T01:00:00Z,28.1530,-82.8010,-1.0,18.61,2 
COMPS,ioos:station:USF.COMPS:FHP:1,2013-12-04T01:06:00Z,28.1530,-82.8010,-1.0,18.56,2 
COMPS,ioos:station:USF.COMPS:FHP:1,2013-12-04T01:12:00Z,28.1530,-82.8010,-1.0,18.56,2 
COMPS,ioos:station:USF.COMPS:FHP:1,2013-12-04T01:18:00Z,28.1530,-82.8010,-1.0,18.5,2 
COMPS,ioos:station:USF.COMPS:FHP:1,2013-12-04T01:24:00Z,28.1530,-82.8010,-1.0,18.51,2 
COMPS,ioos:station:USF.COMPS:FHP:1,2013-12-04T01:30:00Z,28.1530,-82.8010,-1.0,18.55,2 
COMPS,ioos:station:USF.COMPS:FHP:1,2013-12-04T01:36:00Z,28.1530,-82.8010,-1.0,18.52,2 
COMPS,ioos:station:USF.COMPS:FHP:1,2013-12-04T01:42:00Z,28.1530,-82.8010,-1.0,18.51,2 
COMPS,ioos:station:USF.COMPS:FHP:1,2013-12-04T01:48:00Z,28.1530,-82.8010,-1.0,18.47,2 
COMPS,ioos:station:USF.COMPS:FHP:1,2013-12-04T01:54:00Z,28.1530,-82.8010,-1.0,18.44,2 
COMPS,ioos:station:USF.COMPS:FHP:1,2013-12-04T02:00:00Z,28.1530,-82.8010,-1.0,18.4,2 
COMPS,ioos:station:USF.COMPS:FHP:1,2013-12-04T02:06:00Z,28.1530,-82.8010,-1.0,18.36,2 
COMPS,ioos:station:USF.COMPS:FHP:1,2013-12-04T02:12:00Z,28.1530,-82.8010,-1.0,18.35,2 
COMPS,ioos:station:USF.COMPS:FHP:1,2013-12-04T02:18:00Z,28.1530,-82.8010,-1.0,18.31,2 
COMPS,ioos:station:USF.COMPS:FHP:1,2013-12-04T02:24:00Z,28.1530,-82.8010,-1.0,18.31,2 
COMPS,ioos:station:USF.COMPS:FHP:1,2013-12-04T02:30:00Z,28.1530,-82.8010,-1.0,18.31,2 
COMPS,ioos:station:USF.COMPS:FHP:1,2013-12-04T02:36:00Z,28.1530,-82.8010,-1.0,18.3,2 
COMPS,ioos:station:USF.COMPS:FHP:1,2013-12-04T02:42:00Z,28.1530,-82.8010,-1.0,18.3,2 
COMPS,ioos:station:USF.COMPS:FHP:1,2013-12-04T02:48:00Z,28.1530,-82.8010,-1.0,18.3,2 
COMPS,ioos:station:USF.COMPS:FHP:1,2013-12-04T02:54:00Z,28.1530,-82.8010,-1.0,18.3,2 
COMPS,ioos:station:USF.COMPS:FHP:1,2013-12-04T03:00:00Z,28.1530,-82.8010,-1.0,18.29,2 
COMPS,ioos:station:USF.COMPS:FHP:1,2013-12-04T03:06:00Z,28.1530,-82.8010,-1.0,18.29,2 
COMPS,ioos:station:USF.COMPS:FHP:1,2013-12-04T03:12:00Z,28.1530,-82.8010,-1.0,18.28,2 
COMPS,ioos:station:USF.COMPS:FHP:1,2013-12-04T03:18:00Z,28.1530,-82.8010,-1.0,18.26,2 
COMPS,ioos:station:USF.COMPS:FHP:1,2013-12-04T03:24:00Z,28.1530,-82.8010,-1.0,18.28,2 
COMPS,ioos:station:USF.COMPS:FHP:1,2013-12-04T03:30:00Z,28.1530,-82.8010,-1.0,18.27,2 
COMPS,ioos:station:USF.COMPS:FHP:1,2013-12-04T03:36:00Z,28.1530,-82.8010,-1.0,18.27,2 
COMPS,ioos:station:USF.COMPS:FHP:1,2013-12-04T03:42:00Z,28.1530,-82.8010,-1.0,18.25,2 
COMPS,ioos:station:USF.COMPS:FHP:1,2013-12-04T03:48:00Z,28.1530,-82.8010,-1.0,18.26,2 
COMPS,ioos:station:USF.COMPS:FHP:1,2013-12-04T03:54:00Z,28.1530,-82.8010,-1.0,18.25,2 
COMPS,ioos:station:USF.COMPS:FHP:1,2013-12-04T04:00:00Z,28.1530,-82.8010,-1.0,18.24,2 
COMPS,ioos:station:USF.COMPS:FHP:1,2013-12-04T04:06:00Z,28.1530,-82.8010,-1.0,18.22,2 
COMPS,ioos:station:USF.COMPS:FHP:1,2013-12-04T04:12:00Z,28.1530,-82.8010,-1.0,18.19,2 
COMPS,ioos:station:USF.COMPS:FHP:1,2013-12-04T04:18:00Z,28.1530,-82.8010,-1.0,18.21,2 
COMPS,ioos:station:USF.COMPS:FHP:1,2013-12-04T04:24:00Z,28.1530,-82.8010,-1.0,18.22,2 
COMPS,ioos:station:USF.COMPS:FHP:1,2013-12-04T04:30:00Z,28.1530,-82.8010,-1.0,18.22,2 
COMPS,ioos:station:USF.COMPS:FHP:1,2013-12-04T04:36:00Z,28.1530,-82.8010,-1.0,18.24,2 
COMPS,ioos:station:USF.COMPS:FHP:1,2013-12-04T04:42:00Z,28.1530,-82.8010,-1.0,18.25,2 
COMPS,ioos:station:USF.COMPS:FHP:1,2013-12-04T04:48:00Z,28.1530,-82.8010,-1.0,18.26,2 
COMPS,ioos:station:USF.COMPS:FHP:1,2013-12-04T04:54:00Z,28.1530,-82.8010,-1.0,18.25,2 
COMPS,ioos:station:USF.COMPS:FHP:1,2013-12-04T05:00:00Z,28.1530,-82.8010,-1.0,18.24,2 
COMPS,ioos:station:USF.COMPS:FHP:1,2013-12-04T05:06:00Z,28.1530,-82.8010,-1.0,18.23,2 
COMPS,ioos:station:USF.COMPS:FHP:1,2013-12-04T05:12:00Z,28.1530,-82.8010,-1.0,18.22,2 
COMPS,ioos:station:USF.COMPS:FHP:1,2013-12-04T05:18:00Z,28.1530,-82.8010,-1.0,18.22,2 
COMPS,ioos:station:USF.COMPS:FHP:1,2013-12-04T05:24:00Z,28.1530,-82.8010,-1.0,18.22,2 
COMPS,ioos:station:USF.COMPS:FHP:1,2013-12-04T05:30:00Z,28.1530,-82.8010,-1.0,18.22,2 
COMPS,ioos:station:USF.COMPS:FHP:1,2013-12-04T05:36:00Z,28.1530,-82.8010,-1.0,18.22,2 
COMPS,ioos:station:USF.COMPS:FHP:1,2013-12-04T05:42:00Z,28.1530,-82.8010,-1.0,18.21,2 
COMPS,ioos:station:USF.COMPS:FHP:1,2013-12-04T05:48:00Z,28.1530,-82.8010,-1.0,18.21,2 
COMPS,ioos:station:USF.COMPS:FHP:1,2013-12-04T05:54:00Z,28.1530,-82.8010,-1.0,18.21,2 
COMPS,ioos:station:USF.COMPS:FHP:1,2013-12-04T06:00:00Z,28.1530,-82.8010,-1.0,18.21,2 
COMPS,ioos:station:USF.COMPS:FHP:1,2013-12-04T06:06:00Z,28.1530,-82.8010,-1.0,18.2,2 
COMPS,ioos:station:USF.COMPS:FHP:1,2013-12-04T06:12:00Z,28.1530,-82.8010,-1.0,18.19,2 
COMPS,ioos:station:USF.COMPS:FHP:1,2013-12-04T06:18:00Z,28.1530,-82.8010,-1.0,18.19,2 
COMPS,ioos:station:USF.COMPS:FHP:1,2013-12-04T06:24:00Z,28.1530,-82.8010,-1.0,18.19,2 
COMPS,ioos:station:USF.COMPS:FHP:1,2013-12-04T06:30:00Z,28.1530,-82.8010,-1.0,18.19,2 
COMPS,ioos:station:USF.COMPS:FHP:1,2013-12-04T06:36:00Z,28.1530,-82.8010,-1.0,18.21,2 
COMPS,ioos:station:USF.COMPS:FHP:1,2013-12-04T06:42:00Z,28.1530,-82.8010,-1.0,18.21,2 
COMPS,ioos:station:USF.COMPS:FHP:1,2013-12-04T06:48:00Z,28.1530,-82.8010,-1.0,18.24,2 
COMPS,ioos:station:USF.COMPS:FHP:1,2013-12-04T06:54:00Z,28.1530,-82.8010,-1.0,18.29,2 
COMPS,ioos:station:USF.COMPS:FHP:1,2013-12-04T07:00:00Z,28.1530,-82.8010,-1.0,18.3,2 
COMPS,ioos:station:USF.COMPS:FHP:1,2013-12-04T07:06:00Z,28.1530,-82.8010,-1.0,18.3,2 
COMPS,ioos:station:USF.COMPS:FHP:1,2013-12-04T07:12:00Z,28.1530,-82.8010,-1.0,18.29,2 
COMPS,ioos:station:USF.COMPS:FHP:1,2013-12-04T07:18:00Z,28.1530,-82.8010,-1.0,18.29,2 
COMPS,ioos:station:USF.COMPS:FHP:1,2013-12-04T07:24:00Z,28.1530,-82.8010,-1.0,18.28,2 
COMPS,ioos:station:USF.COMPS:FHP:1,2013-12-04T07:30:00Z,28.1530,-82.8010,-1.0,18.27,2 
COMPS,ioos:station:USF.COMPS:FHP:1,2013-12-04T07:36:00Z,28.1530,-82.8010,-1.0,18.27,2 
COMPS,ioos:station:USF.COMPS:FHP:1,2013-12-04T07:42:00Z,28.1530,-82.8010,-1.0,18.26,2 
COMPS,ioos:station:USF.COMPS:FHP:1,2013-12-04T07:48:00Z,28.1530,-82.8010,-1.0,18.26,2 
COMPS,ioos:station:USF.COMPS:FHP:1,2013-12-04T07:54:00Z,28.1530,-82.8010,-1.0,18.24,2 
COMPS,ioos:station:USF.COMPS:FHP:1,2013-12-04T08:00:00Z,28.1530,-82.8010,-1.0,18.23,2 
COMPS,ioos:station:USF.COMPS:FHP:1,2013-12-04T08:06:00Z,28.1530,-82.8010,-1.0,18.22,2 
COMPS,ioos:station:USF.COMPS:FHP:1,2013-12-04T08:12:00Z,28.1530,-82.8010,-1.0,18.22,2 
COMPS,ioos:station:USF.COMPS:FHP:1,2013-12-04T08:18:00Z,28.1530,-82.8010,-1.0,18.21,2 
COMPS,ioos:station:USF.COMPS:FHP:1,2013-12-04T08:24:00Z,28.1530,-82.8010,-1.0,18.21,2 
COMPS,ioos:station:USF.COMPS:FHP:1,2013-12-04T08:30:00Z,28.1530,-82.8010,-1.0,18.21,2 
COMPS,ioos:station:USF.COMPS:FHP:1,2013-12-04T08:36:00Z,28.1530,-82.8010,-1.0,18.21,2 
COMPS,ioos:station:USF.COMPS:FHP:1,2013-12-04T08:42:00Z,28.1530,-82.8010,-1.0,18.21,2 
COMPS,ioos:station:USF.COMPS:FHP:1,2013-12-04T08:48:00Z,28.1530,-82.8010,-1.0,18.21,2 
COMPS,ioos:station:USF.COMPS:FHP:1,2013-12-04T08:54:00Z,28.1530,-82.8010,-1.0,18.21,2 
COMPS,ioos:station:USF.COMPS:FHP:1,2013-12-04T09:00:00Z,28.1530,-82.8010,-1.0,18.22,2 
COMPS,ioos:station:USF.COMPS:FHP:1,2013-12-04T09:06:00Z,28.1530,-82.8010,-1.0,18.22,2 
COMPS,ioos:station:USF.COMPS:FHP:1,2013-12-04T09:12:00Z,28.1530,-82.8010,-1.0,18.23,2 
COMPS,ioos:station:USF.COMPS:FHP:1,2013-12-04T09:18:00Z,28.1530,-82.8010,-1.0,18.24,2 
COMPS,ioos:station:USF.COMPS:FHP:1,2013-12-04T09:24:00Z,28.1530,-82.8010,-1.0,18.24,2 
COMPS,ioos:station:USF.COMPS:FHP:1,2013-12-04T09:30:00Z,28.1530,-82.8010,-1.0,18.24,2 
COMPS,ioos:station:USF.COMPS:FHP:1,2013-12-04T09:36:00Z,28.1530,-82.8010,-1.0,18.24,2 
COMPS,ioos:station:USF.COMPS:FHP:1,2013-12-04T09:42:00Z,28.1530,-82.8010,-1.0,18.24,2 
COMPS,ioos:station:USF.COMPS:FHP:1,2013-12-04T09:48:00Z,28.1530,-82.8010,-1.0,18.26,2 
COMPS,ioos:station:USF.COMPS:FHP:1,2013-12-04T09:54:00Z,28.1530,-82.8010,-1.0,18.26,2 
COMPS,ioos:station:USF.COMPS:FHP:1,2013-12-04T10:00:00Z,28.1530,-82.8010,-1.0,18.33,2 
COMPS,ioos:station:USF.COMPS:FHP:1,2013-12-04T10:06:00Z,28.1530,-82.8010,-1.0,18.37,2 
COMPS,ioos:station:USF.COMPS:FHP:1,2013-12-04T10:12:00Z,28.1530,-82.8010,-1.0,18.41,2 
COMPS,ioos:station:USF.COMPS:FHP:1,2013-12-04T10:18:00Z,28.1530,-82.8010,-1.0,18.51,2 
COMPS,ioos:station:USF.COMPS:FHP:1,2013-12-04T10:24:00Z,28.1530,-82.8010,-1.0,18.61,2 
COMPS,ioos:station:USF.COMPS:FHP:1,2013-12-04T10:30:00Z,28.1530,-82.8010,-1.0,18.71,2 
COMPS,ioos:station:USF.COMPS:FHP:1,2013-12-04T10:36:00Z,28.1530,-82.8010,-1.0,18.76,2 
COMPS,ioos:station:USF.COMPS:FHP:1,2013-12-04T10:42:00Z,28.1530,-82.8010,-1.0,18.78,2 
COMPS,ioos:station:USF.COMPS:FHP:1,2013-12-04T10:48:00Z,28.1530,-82.8010,-1.0,18.78,2 
COMPS,ioos:station:USF.COMPS:FHP:1,2013-12-04T10:54:00Z,28.1530,-82.8010,-1.0,18.77,2 
COMPS,ioos:station:USF.COMPS:FHP:1,2013-12-04T11:00:00Z,28.1530,-82.8010,-1.0,18.8,2 
COMPS,ioos:station:USF.COMPS:FHP:1,2013-12-04T11:06:00Z,28.1530,-82.8010,-1.0,18.81,2 
COMPS,ioos:station:USF.COMPS:FHP:1,2013-12-04T11:12:00Z,28.1530,-82.8010,-1.0,18.8,2 
COMPS,ioos:station:USF.COMPS:FHP:1,2013-12-04T11:18:00Z,28.1530,-82.8010,-1.0,18.79,2 
COMPS,ioos:station:USF.COMPS:FHP:1,2013-12-04T11:24:00Z,28.1530,-82.8010,-1.0,18.78,2 
COMPS,ioos:station:USF.COMPS:FHP:1,2013-12-04T11:30:00Z,28.1530,-82.8010,-1.0,18.8,2 
COMPS,ioos:station:USF.COMPS:FHP:1,2013-12-04T11:36:00Z,28.1530,-82.8010,-1.0,18.82,2 
COMPS,ioos:station:USF.COMPS:FHP:1,2013-12-04T11:42:00Z,28.1530,-82.8010,-1.0,18.85,2 
COMPS,ioos:station:USF.COMPS:FHP:1,2013-12-04T11:48:00Z,28.1530,-82.8010,-1.0,18.87,2 
COMPS,ioos:station:USF.COMPS:FHP:1,2013-12-04T11:54:00Z,28.1530,-82.8010,-1.0,18.9,2 
COMPS,ioos:station:USF.COMPS:FHP:1,2013-12-04T12:00:00Z,28.1530,-82.8010,-1.0,18.89,2 
COMPS,ioos:station:USF.COMPS:FHP:1,2013-12-04T12:06:00Z,28.1530,-82.8010,-1.0,18.93,2 
COMPS,ioos:station:USF.COMPS:FHP:1,2013-12-04T12:12:00Z,28.1530,-82.8010,-1.0,18.96,2 
COMPS,ioos:station:USF.COMPS:FHP:1,2013-12-04T12:18:00Z,28.1530,-82.8010,-1.0,18.96,2 
COMPS,ioos:station:USF.COMPS:FHP:1,2013-12-04T12:24:00Z,28.1530,-82.8010,-1.0,18.97,2 
COMPS,ioos:station:USF.COMPS:FHP:1,2013-12-04T12:30:00Z,28.1530,-82.8010,-1.0,19.0,2 
COMPS,ioos:station:USF.COMPS:FHP:1,2013-12-04T12:36:00Z,28.1530,-82.8010,-1.0,18.99,2 
COMPS,ioos:station:USF.COMPS:FHP:1,2013-12-04T12:42:00Z,28.1530,-82.8010,-1.0,18.96,2 
COMPS,ioos:station:USF.COMPS:FHP:1,2013-12-04T12:48:00Z,28.1530,-82.8010,-1.0,18.98,2 
COMPS,ioos:station:USF.COMPS:FHP:1,2013-12-04T12:54:00Z,28.1530,-82.8010,-1.0,19.06,2 
COMPS,ioos:station:USF.COMPS:FHP:1,2013-12-04T13:00:00Z,28.1530,-82.8010,-1.0,19.14,2 
COMPS,ioos:station:USF.COMPS:FHP:1,2013-12-04T13:06:00Z,28.1530,-82.8010,-1.0,19.25,2 
COMPS,ioos:station:USF.COMPS:FHP:1,2013-12-04T13:12:00Z,28.1530,-82.8010,-1.0,19.32,2 
COMPS,ioos:station:USF.COMPS:FHP:1,2013-12-04T13:18:00Z,28.1530,-82.8010,-1.0,19.32,2 
COMPS,ioos:station:USF.COMPS:FHP:1,2013-12-04T13:24:00Z,28.1530,-82.8010,-1.0,19.52,2 
COMPS,ioos:station:USF.COMPS:FHP:1,2013-12-04T13:30:00Z,28.1530,-82.8010,-1.0,19.7,2 
COMPS,ioos:station:USF.COMPS:FHP:1,2013-12-04T13:36:00Z,28.1530,-82.8010,-1.0,19.63,2 
COMPS,ioos:station:USF.COMPS:FHP:1,2013-12-04T13:42:00Z,28.1530,-82.8010,-1.0,19.58,2 
COMPS,ioos:station:USF.COMPS:FHP:1,2013-12-04T13:48:00Z,28.1530,-82.8010,-1.0,19.6,2 
COMPS,ioos:station:USF.COMPS:FHP:1,2013-12-04T13:54:00Z,28.1530,-82.8010,-1.0,19.87,2 
COMPS,ioos:station:USF.COMPS:FHP:1,2013-12-04T14:00:00Z,28.1530,-82.8010,-1.0,20.08,2 
COMPS,ioos:station:USF.COMPS:FHP:1,2013-12-04T14:06:00Z,28.1530,-82.8010,-1.0,20.21,2 
COMPS,ioos:station:USF.COMPS:FHP:1,2013-12-04T14:12:00Z,28.1530,-82.8010,-1.0,20.45,2 
COMPS,ioos:station:USF.COMPS:FHP:1,2013-12-04T14:18:00Z,28.1530,-82.8010,-1.0,20.6,2 
COMPS,ioos:station:USF.COMPS:FHP:1,2013-12-04T14:24:00Z,28.1530,-82.8010,-1.0,20.73,2 
COMPS,ioos:station:USF.COMPS:FHP:1,2013-12-04T14:30:00Z,28.1530,-82.8010,-1.0,20.79,2 
COMPS,ioos:station:USF.COMPS:FHP:1,2013-12-04T14:36:00Z,28.1530,-82.8010,-1.0,20.89,2 
COMPS,ioos:station:USF.COMPS:FHP:1,2013-12-04T14:42:00Z,28.1530,-82.8010,-1.0,20.9,2 
COMPS,ioos:station:USF.COMPS:FHP:1,2013-12-04T14:48:00Z,28.1530,-82.8010,-1.0,19.88,2 
COMPS,ioos:station:USF.COMPS:FHP:1,2013-12-04T14:54:00Z,28.1530,-82.8010,-1.0,18.99,2 
COMPS,ioos:station:USF.COMPS:FHP:1,2013-12-04T15:00:00Z,28.1530,-82.8010,-1.0,18.92,2 
COMPS,ioos:station:USF.COMPS:FHP:1,2013-12-04T15:06:00Z,28.1530,-82.8010,-1.0,18.94,2 
COMPS,ioos:station:USF.COMPS:FHP:1,2013-12-04T15:12:00Z,28.1530,-82.8010,-1.0,18.95,2 
COMPS,ioos:station:USF.COMPS:FHP:1,2013-12-04T15:18:00Z,28.1530,-82.8010,-1.0,18.99,2 
COMPS,ioos:station:USF.COMPS:FHP:1,2013-12-04T15:24:00Z,28.1530,-82.8010,-1.0,18.99,2 
COMPS,ioos:station:USF.COMPS:FHP:1,2013-12-04T15:30:00Z,28.1530,-82.8010,-1.0,19.02,2 
COMPS,ioos:station:USF.COMPS:FHP:1,2013-12-04T15:36:00Z,28.1530,-82.8010,-1.0,19.06,2 
COMPS,ioos:station:USF.COMPS:FHP:1,2013-12-04T15:42:00Z,28.1530,-82.8010,-1.0,19.11,2 
COMPS,ioos:station:USF.COMPS:FHP:1,2013-12-04T15:48:00Z,28.1530,-82.8010,-1.0,19.18,2 
COMPS,ioos:station:USF.COMPS:FHP:1,2013-12-04T15:54:00Z,28.1530,-82.8010,-1.0,19.19,2 
COMPS,ioos:station:USF.COMPS:FHP:1,2013-12-04T16:00:00Z,28.1530,-82.8010,-1.0,19.23,2 
COMPS,ioos:station:USF.COMPS:FHP:1,2013-12-04T16:06:00Z,28.1530,-82.8010,-1.0,19.25,2 
COMPS,ioos:station:USF.COMPS:FHP:1,2013-12-04T16:12:00Z,28.1530,-82.8010,-1.0,19.27,2 
COMPS,ioos:station:USF.COMPS:FHP:1,2013-12-04T16:18:00Z,28.1530,-82.8010,-1.0,19.29,2 
COMPS,ioos:station:USF.COMPS:FHP:1,2013-12-04T16:24:00Z,28.1530,-82.8010,-1.0,19.32,2 
COMPS,ioos:station:USF.COMPS:FHP:1,2013-12-04T16:30:00Z,28.1530,-82.8010,-1.0,19.35,2 
COMPS,ioos:station:USF.COMPS:FHP:1,2013-12-04T16:36:00Z,28.1530,-82.8010,-1.0,19.37,2 
COMPS,ioos:station:USF.COMPS:FHP:1,2013-12-04T16:42:00Z,28.1530,-82.8010,-1.0,19.35,2 
COMPS,ioos:station:USF.COMPS:FHP:1,2013-12-04T16:48:00Z,28.1530,-82.8010,-1.0,19.38,2 
COMPS,ioos:station:USF.COMPS:FHP:1,2013-12-04T16:54:00Z,28.1530,-82.8010,-1.0,19.42,2 
COMPS,ioos:station:USF.COMPS:FHP:1,2013-12-04T17:00:00Z,28.1530,-82.8010,-1.0,19.41,2 
COMPS,ioos:station:USF.COMPS:FHP:1,2013-12-04T17:06:00Z,28.1530,-82.8010,-1.0,19.37,2 
COMPS,ioos:station:USF.COMPS:FHP:1,2013-12-04T17:12:00Z,28.1530,-82.8010,-1.0,19.36,2 
COMPS,ioos:station:USF.COMPS:FHP:1,2013-12-04T17:18:00Z,28.1530,-82.8010,-1.0,19.37,2 
COMPS,ioos:station:USF.COMPS:FHP:1,2013-12-04T17:24:00Z,28.1530,-82.8010,-1.0,19.38,2 
COMPS,ioos:station:USF.COMPS:FHP:1,2013-12-04T17:30:00Z,28.1530,-82.8010,-1.0,19.45,2 
COMPS,ioos:station:USF.COMPS:FHP:1,2013-12-04T17:36:00Z,28.1530,-82.8010,-1.0,19.53,2 
COMPS,ioos:station:USF.COMPS:FHP:1,2013-12-04T17:42:00Z,28.1530,-82.8010,-1.0,19.52,2 
COMPS,ioos:station:USF.COMPS:FHP:1,2013-12-04T17:48:00Z,28.1530,-82.8010,-1.0,19.51,2 
COMPS,ioos:station:USF.COMPS:FHP:1,2013-12-04T17:54:00Z,28.1530,-82.8010,-1.0,19.52,2 
COMPS,ioos:station:USF.COMPS:FHP:1,2013-12-04T18:00:00Z,28.1530,-82.8010,-1.0,19.57,2 
COMPS,ioos:station:USF.COMPS:FHP:1,2013-12-04T18:06:00Z,28.1530,-82.8010,-1.0,19.56,2 
COMPS,ioos:station:USF.COMPS:FHP:1,2013-12-04T18:12:00Z,28.1530,-82.8010,-1.0,19.57,2 
COMPS,ioos:station:USF.COMPS:FHP:1,2013-12-04T18:18:00Z,28.1530,-82.8010,-1.0,19.67,2 
COMPS,ioos:station:USF.COMPS:FHP:1,2013-12-04T18:24:00Z,28.1530,-82.8010,-1.0,19.64,2 
COMPS,ioos:station:USF.COMPS:FHP:1,2013-12-04T18:30:00Z,28.1530,-82.8010,-1.0,19.64,2 
COMPS,ioos:station:USF.COMPS:FHP:1,2013-12-04T18:36:00Z,28.1530,-82.8010,-1.0,19.72,2 
COMPS,ioos:station:USF.COMPS:FHP:1,2013-12-04T18:42:00Z,28.1530,-82.8010,-1.0,19.76,2 
COMPS,ioos:station:USF.COMPS:FHP:1,2013-12-04T18:48:00Z,28.1530,-82.8010,-1.0,19.79,2 
COMPS,ioos:station:USF.COMPS:FHP:1,2013-12-04T18:54:00Z,28.1530,-82.8010,-1.0,19.82,2 
COMPS,ioos:station:USF.COMPS:FHP:1,2013-12-04T19:00:00Z,28.1530,-82.8010,-1.0,19.83,2 
COMPS,ioos:station:USF.COMPS:FHP:1,2013-12-04T19:06:00Z,28.1530,-82.8010,-1.0,19.85,2 
COMPS,ioos:station:USF.COMPS:FHP:1,2013-12-04T19:12:00Z,28.1530,-82.8010,-1.0,19.86,2 
COMPS,ioos:station:USF.COMPS:FHP:1,2013-12-04T19:18:00Z,28.1530,-82.8010,-1.0,19.87,2 
COMPS,ioos:station:USF.COMPS:FHP:1,2013-12-04T19:24:00Z,28.1530,-82.8010,-1.0,19.89,2 